This is the latest recevied weather packets stored in our database for station/object W4BOD. If no packets are shown the sender has not sent any weather packets the latest 10 day(s).
| Time | Temp. | Humidity | Pressure | Rain* | Wind** | Luminosity | Snow |
|---|---|---|---|---|---|---|---|
| 1777643354 | 13.89° C | 74% | 1015.6 hPa | 0 mm | - | 85 W/m² | - |
| 1777643050 | 13.89° C | 75% | 1015.8 hPa | 0 mm | - | 103 W/m² | - |
| 1777642746 | 13.89° C | 77% | 1015.7 hPa | 0 mm | - | 85 W/m² | - |
| 1777642438 | 13.33° C | 78% | 1015.6 hPa | 0 mm | - | 63 W/m² | - |
| 1777642134 | 13.33° C | 79% | 1015.7 hPa | 0 mm | - | 61 W/m² | - |
| 1777641830 | 12.78° C | 80% | 1016 hPa | 0 mm | - | 60 W/m² | - |
| 1777641526 | 12.78° C | 80% | 1015.6 hPa | 0 mm | - | 58 W/m² | - |
| 1777641221 | 12.78° C | 81% | 1015.8 hPa | 0 mm | - | 57 W/m² | - |
| 1777640918 | 12.22° C | 81% | 1015.9 hPa | 0 mm | - | 55 W/m² | - |
| 1777640615 | 12.22° C | 82% | 1015.8 hPa | 0 mm | - | 53 W/m² | - |
| 1777640311 | 11.67° C | 83% | 1015.8 hPa | 0 mm | - | 51 W/m² | - |
| 1777640008 | 11.67° C | 84% | 1015.9 hPa | 0 mm | - | 50 W/m² | - |
| 1777639705 | 11.67° C | 85% | 1015.7 hPa | 0 mm | - | 48 W/m² | - |
| 1777639403 | 11.11° C | 84% | 1015.9 hPa | 0 mm | - | 47 W/m² | - |
| 1777639103 | 11.11° C | 84% | 1015.7 hPa | 0 mm | - | 45 W/m² | - |
| 1777638800 | 11.11° C | 84% | 1015.8 hPa | 0 mm | - | 44 W/m² | - |
| 1777638495 | 10.56° C | 85% | 1016.1 hPa | 0 mm | - | 42 W/m² | - |
| 1777638192 | 10.56° C | 85% | 1015.9 hPa | 0 mm | - | 40 W/m² | - |
| 1777637888 | 10.56° C | 85% | 1015.7 hPa | 0 mm | - | 39 W/m² | - |
| 1777637584 | 10° C | 89% | 1015.6 hPa | 0 mm | - | 38 W/m² | - |
| 1777637282 | 10° C | 93% | 1015.4 hPa | 0 mm | - | 40 W/m² | - |
| 1777636978 | 9.44° C | 97% | 1015.4 hPa | 0 mm | - | 37 W/m² | - |
| 1777636674 | 9.44° C | 98% | 1015.2 hPa | 0 mm | - | 40 W/m² | - |
| 1777636371 | 8.89° C | 99% | 1015.6 hPa | 0 mm | - | 49 W/m² | - |
| 1777636070 | 8.89° C | 99% | 1015.5 hPa | 0 mm | - | 44 W/m² | - |
* Rain latest hour (hover to see other rain measurements)
** Current wind speed in m/s (hover to see current wind gust speed)